Tracking 19831 objects as of 23-Aug-2019
HD Live streaming from Space Station
objects crossing your sky now

CARTOSAT-1

Track CARTOSAT-1 now!
10-day predictions
CARTOSAT-1 is classified as:


NORAD ID: 28649
Int'l Code: 2005-017A
Perigee: 623.8 km
Apogee: 626.2 km
Inclination: 97.9 °
Period: 97.1 minutes
Semi major axis: 6995 km
RCS: 4.7551 m2 (large)
Launch date: May 5, 2005
Source: India (IND)
Launch site: SRIHARIKOTA (SRI)

Remote sensing and mapping, land use, forest cover, river flow assessments.
aabbcc
Your satellite tracking list
Your tracking list is empty




NASA's NSSDC Master Catalog

Two Line Element Set (TLE):
1 28649U 05017A   19235.53776692  .00000031  00000-0  10084-4 0  9998
2 28649  97.8509 305.1577 0001688  34.7432 325.3893 14.83648192774190
Source of the keplerian elements: AFSPC